Change the Weather History Date:

Friday, October 12, 2012

  Actual Average Record
Temperature  
Mean Temperature 50 °F -  
Max Temperature 61 °F 68 °F 87 °F (1997)
Min Temperature 39 °F 46 °F 29 °F (1988)
Degree Days  
Heating Degree Days 15    
Moisture  
Dew Point 39 °F    
Average Humidity 74    
Maximum Humidity 97    
Minimum Humidity 41    
Precipitation  
Precipitation 0.00 in - - ()
Sea Level Pressure  
Sea Level Pressure 30.33 in    
Wind  
Wind Speed 3 mph (NE)    
Max Wind Speed 15 mph    
Max Gust Speed 18 mph    
Visibility 10 miles    
Events      
Averages and records for this station are not official NWS values.
T = Trace of Precipitation, MM = Missing Value Source: NWS Daily Summary

Daily Weather History Graph

Daily Weather History Graph

Search for Another Location

Airport or City:

Trip Planner

Search our weather history database for the weather conditions in past years. The results will help you decide how hot, cold, wet, or windy it might be!

Date:

Astronomy

Oct. 12, 2012 Rise Set
Actual Time 7:44 AM EDT 7:02 PM EDT
Civil Twilight 7:17 AM EDT 7:29 PM EDT
Nautical Twilight 6:46 AM EDT 8:00 PM EDT
Astronomical Twilight 6:15 AM EDT 8:31 PM EDT
Moon 4:28 AM EDT (10/12) 5:10 PM EDT (10/12)
Length of Visible Light 12h 11m
Length of Day
11h 17m
Waning Crescent, 11% of the Moon is Illuminated
Oct 12
Waning Crescent
Oct 15
New
Oct 21
First Quarter
Oct 29
Full
Nov 6
Last Quarter

Hourly Weather History & Observations

Time (EDT) Temp. Windchill Dew Point Humidity Pressure Visibility Wind Dir Wind Speed Gust Speed Precip Events Conditions
12:53 AM 39.9 °F - 37.9 °F 93% 30.24 in 10.0 mi Calm Calm - N/A   Clear
1:53 AM 42.1 °F - 39.0 °F 89% 30.24 in 10.0 mi Calm Calm - N/A   Clear
2:53 AM 39.9 °F - 39.0 °F 97% 30.22 in 9.0 mi Calm Calm - N/A   Clear
3:53 AM 39.0 °F 36.8 °F 37.9 °F 96% 30.25 in 9.0 mi NE 3.5 mph - N/A   Clear
4:53 AM 41.0 °F - 39.0 °F 93% 30.25 in 10.0 mi Calm Calm - N/A   Clear
5:53 AM 42.1 °F - 39.9 °F 92% 30.28 in 10.0 mi Calm Calm - N/A   Clear
6:53 AM 42.1 °F - 39.9 °F 92% 30.29 in 10.0 mi Calm Calm - N/A   Clear
7:53 AM 41.0 °F - 39.0 °F 93% 30.30 in 10.0 mi Calm Calm - N/A   Clear
8:53 AM 43.0 °F - 41.0 °F 93% 30.32 in 10.0 mi Calm Calm - N/A   Clear
9:41 AM 51.8 °F - 42.8 °F 71% 30.34 in 10.0 mi NNE 13.8 mph 18.4 mph N/A   Clear
9:53 AM 51.1 °F - 41.0 °F 68% 30.36 in 10.0 mi NE 12.7 mph - N/A   Clear
10:53 AM 53.1 °F - 42.1 °F 66% 30.38 in 10.0 mi NNE 15.0 mph - N/A   Clear
11:53 AM 55.4 °F - 39.2 °F 54% 30.39 in 10.0 mi NE 13.8 mph 18.4 mph N/A   Clear
12:53 PM 57.2 °F - 41.0 °F 55% 30.38 in 10.0 mi NE 8.1 mph - N/A   Scattered Clouds
1:53 PM 57.9 °F - 37.9 °F 47% 30.38 in 10.0 mi ENE 9.2 mph - N/A   Clear
2:53 PM 60.1 °F - 39.0 °F 46% 30.36 in 10.0 mi NNE 8.1 mph - N/A   Clear
3:53 PM 61.0 °F - 37.0 °F 41% 30.34 in 10.0 mi NE 10.4 mph - N/A   Clear
4:53 PM 61.0 °F - 37.0 °F 41% 30.35 in 10.0 mi Variable 4.6 mph - N/A   Clear
5:53 PM 59.0 °F - 37.9 °F 46% 30.35 in 10.0 mi NE 6.9 mph - N/A   Clear
6:53 PM 55.9 °F - 37.0 °F 49% 30.36 in 10.0 mi NE 3.5 mph - N/A   Clear
7:53 PM 48.0 °F - 41.0 °F 77% 30.37 in 10.0 mi Calm Calm - N/A   Clear
8:53 PM 45.0 °F - 39.0 °F 80% 30.37 in 10.0 mi Calm Calm - N/A   Clear
9:53 PM 42.8 °F - 39.2 °F 87% 30.38 in 10.0 mi Calm Calm - N/A   Clear
10:53 PM 41.0 °F - 37.9 °F 89% 30.38 in 10.0 mi Calm Calm - N/A   Clear
11:53 PM 39.0 °F - 37.0 °F 93% 30.38 in 10.0 mi Calm Calm - N/A   Clear